sat.trackr.live / text

‹ back to catalog

STARLINK-31179

NORAD 58750 · 2024-005Y

PAYLOAD ACTIVE UNKNOWN

§ Identity

Operator
Country
US
Launch date
2024-01-07
Launch site
AFETR
Launch vehicle
Mass (kg)
RCS (m²)

Purposes: comms

External: N2YO · Heavens-Above · Gunter

§ Orbital elements

Epoch: 2026-09-20T05:31:09.020928Z

Period
94.27 min
Inclination
43.0020°
Eccentricity
0.0001512
Mean motion
15.27576844 rev/d
Perigee alt
482.0 km
Apogee alt
484.1 km
Semi-major
6,861.2 km
B*
9.9914e-6
RAAN
201.3109°
Arg perigee
268.9428°
Mean anomaly
91.1251°
Rev number
15,019

§ Raw data

STARLINK-311791 58750U 24005Y   26263.22996552  .00000013  00000+0  99914-5 0  99952 58750  43.0020 201.3109 0001512 268.9428  91.1251 15.27576844150194

JSON: /api/v1/satellites/58750 · /tle

For live sub-satellite position, see the globe view (requires WebGL).

§ Visibility from observer

Set your observer location to see the next 7 days of passes ≥ 10°. The values pass through the URL so the page stays shareable.

No JS? Fill the form by hand. The geolocation button needs JavaScript.